Date String (YYYY-MM-DD hh:mm:ss) UTC,Instrument flags,Ambient pressure (hPa),Sample flow (lpm),Bypass flow (lpm),Sample temperature (°C),Ambient temperature (°C),ASC tube jacket temperature (°C),LED temperature (°C),Box temperature (°C),Sample RH (%),Span deviation,Mass concentration (μg/m³),Mass concentration (μg/m³),Mass concentration (μg/m³)
DateTimeUTC,F1_M11,P_M11,Q1_M11,Q2_M11,T1_M11,T2_M11,T3_M11,T4_M11,T5_M11,U1_M11,ZSPAN_M11,X0_M11,X2_M11,X1_M11
2022-04-25 08:00:00,,0832.7,5.00,0.00,22.6,21.9,00.0,31.4,24.4,10.3,0000.0,0006.54,0003.61,0003.22
2022-04-25 08:01:00,,0832.8,5.01,0.00,22.6,21.9,00.0,31.4,24.5,10.2,0000.0,0006.54,0003.62,0003.23
2022-04-25 08:02:00,,0832.8,4.99,0.00,22.6,21.9,00.0,31.4,24.5,10.2,0000.0,0006.38,0003.62,0003.23
2022-04-25 08:03:00,,0832.8,5.00,0.00,22.6,21.9,00.0,31.4,24.5,10.2,0000.0,0006.31,0003.66,0003.23
2022-04-25 08:04:00,,0832.8,5.00,0.00,22.6,21.9,00.0,31.4,24.5,10.1,0000.0,0006.20,0003.68,0003.23
2022-04-25 08:05:00,,0832.8,5.01,0.00,22.6,21.9,00.0,31.4,24.5,10.1,0000.0,0006.19,0003.68,0003.23
2022-04-25 08:06:00,,0832.9,5.00,0.00,22.6,21.9,00.0,31.5,24.5,10.1,0000.0,0007.03,0003.70,0003.23
2022-04-25 08:07:00,,0832.8,4.99,0.00,22.6,21.9,00.0,31.5,24.5,10.1,0000.0,0007.51,0003.74,0003.23
2022-04-25 08:08:00,,0832.8,5.00,0.00,22.6,21.9,00.0,31.5,24.4,10.1,0000.0,0007.57,0003.76,0003.24
2022-04-25 08:09:00,,0832.9,5.01,0.00,22.6,21.9,00.0,31.5,24.5,10.1,0000.0,0007.75,0003.81,0003.24
2022-04-25 08:10:00,,0832.8,5.00,0.00,22.6,21.9,00.0,31.5,24.5,10.1,0000.0,0007.74,0003.82,0003.25
2022-04-25 08:11:00,,0832.8,5.00,0.00,22.6,21.9,00.0,31.5,24.5,10.1,0000.0,0007.84,0003.86,0003.26
2022-04-25 08:12:00,,0832.9,5.00,0.00,22.6,21.9,00.0,31.5,24.4,10.1,0000.0,0007.82,0003.86,0003.26
2022-04-25 08:13:00,,0832.8,5.00,0.00,22.6,21.9,00.0,31.5,24.5,10.1,0000.0,0007.80,0003.85,0003.26
2022-04-25 08:14:00,,0832.8,4.98,0.00,22.6,21.9,00.0,31.5,24.5,10.1,0000.0,0007.73,0003.83,0003.25
2022-04-25 08:15:00,,0832.9,5.00,0.00,22.6,21.9,00.0,31.5,24.4,10.1,0000.0,0007.75,0003.83,0003.25
2022-04-25 08:16:00,,0832.9,5.01,0.00,22.6,21.8,00.0,31.5,24.4,10.0,0000.0,0007.71,0003.81,0003.25
2022-04-25 08:17:00,,0832.8,5.01,0.00,22.6,21.8,00.0,31.5,24.4,10.0,0000.0,0007.24,0003.79,0003.24
2022-04-25 08:18:00,,0832.8,4.99,0.00,22.6,21.8,00.0,31.5,24.4,10.0,0000.0,0006.60,0003.75,0003.22
2022-04-25 08:19:00,,0832.8,5.01,0.00,22.6,21.8,00.0,31.5,24.4,09.9,0000.0,0006.53,0003.72,0003.21
2022-04-25 08:20:00,,0832.8,5.01,0.00,22.6,21.8,00.0,31.5,24.4,09.9,0000.0,0006.44,0003.69,0003.20
2022-04-25 08:21:00,,0832.8,5.01,0.00,22.6,21.8,00.0,31.5,24.4,09.9,0000.0,0006.41,0003.72,0003.20
2022-04-25 08:22:00,,0832.7,5.01,0.00,22.6,21.8,00.0,31.5,24.4,09.9,0000.0,0006.91,0003.70,0003.19
2022-04-25 08:23:00,,0832.7,4.98,0.00,22.6,21.8,00.0,31.5,24.4,09.9,0000.0,0007.54,0003.68,0003.18
2022-04-25 08:24:00,,0832.7,5.01,0.00,22.6,21.8,00.0,31.5,24.4,09.9,0000.0,0007.51,0003.68,0003.19
2022-04-25 08:25:00,,0832.8,5.00,0.00,22.6,21.8,00.0,31.5,24.4,09.9,0000.0,0007.50,0003.68,0003.20
2022-04-25 08:26:00,,0832.7,5.00,0.00,22.6,21.8,00.0,31.5,24.4,09.9,0000.0,0007.52,0003.63,0003.19
2022-04-25 08:27:00,,0832.8,5.00,0.00,22.6,21.9,00.0,31.5,24.4,09.8,0000.0,0007.44,0003.59,0003.18
2022-04-25 08:28:00,,0832.8,4.99,0.00,22.6,21.9,00.0,31.5,24.4,09.8,0000.0,0007.86,0003.61,0003.19
2022-04-25 08:29:00,,0832.7,5.00,0.00,22.6,21.9,00.0,31.5,24.4,09.8,0000.0,0008.06,0003.60,0003.19
2022-04-25 08:30:00,,0832.8,5.00,0.00,22.6,21.9,00.0,31.5,24.4,09.8,0000.0,0008.03,0003.59,0003.20
2022-04-25 08:31:00,,0832.7,5.01,0.00,22.6,21.9,00.0,31.5,24.4,09.9,0000.0,0007.88,0003.56,0003.20
2022-04-25 08:32:00,,0832.8,5.01,0.00,22.6,21.9,00.0,31.5,24.4,09.9,0000.0,0007.82,0003.55,0003.20
2022-04-25 08:33:00,,0832.8,4.98,0.00,22.6,21.9,00.0,31.5,24.4,09.9,0000.0,0007.10,0003.52,0003.19
2022-04-25 08:34:00,,0832.8,5.00,0.00,22.6,21.8,00.0,31.5,24.4,09.9,0000.0,0007.21,0003.51,0003.19
2022-04-25 08:35:00,,0832.7,5.00,0.00,22.6,21.8,00.0,31.5,24.4,09.9,0000.0,0007.78,0003.50,0003.19
2022-04-25 08:36:00,,0832.8,5.01,0.00,22.6,21.8,00.0,31.5,24.3,10.0,0000.0,0007.78,0003.49,0003.19
2022-04-25 08:37:00,,0832.8,4.98,0.00,22.5,21.8,00.0,31.5,24.3,10.0,0000.0,0007.85,0003.51,0003.20
2022-04-25 08:38:00,,0832.8,5.00,0.00,22.5,21.8,00.0,31.5,24.3,10.0,0000.0,0008.09,0003.55,0003.21
2022-04-25 08:39:00,,0832.8,5.00,0.00,22.5,21.7,00.0,31.5,24.3,10.1,0000.0,0007.71,0003.54,0003.21
2022-04-25 08:40:00,,0832.8,5.00,0.00,22.5,21.7,00.0,31.5,24.3,10.1,0000.0,0007.60,0003.56,0003.22
2022-04-25 08:41:00,,0832.8,5.01,0.00,22.5,21.7,00.0,31.5,24.3,10.1,0000.0,0007.63,0003.58,0003.22
2022-04-25 08:42:00,,0832.8,4.98,0.00,22.5,21.7,00.0,31.5,24.3,10.1,0000.0,0007.65,0003.58,0003.22
2022-04-25 08:43:00,,0832.8,5.00,0.00,22.5,21.7,00.0,31.5,24.3,10.1,0000.0,0007.62,0003.56,0003.21
2022-04-25 08:44:00,,0832.7,5.01,0.00,22.5,21.7,00.0,31.4,24.3,10.0,0000.0,0007.61,0003.57,0003.22
2022-04-25 08:45:00,,0832.8,5.01,0.00,22.5,21.7,00.0,31.4,24.3,09.9,0000.0,0006.95,0003.63,0003.23
2022-04-25 08:46:00,,0832.8,4.98,0.00,22.5,21.7,00.0,31.4,24.3,09.9,0000.0,0006.38,0003.62,0003.22
2022-04-25 08:47:00,,0832.8,5.00,0.00,22.5,21.7,00.0,31.4,24.3,09.9,0000.0,0006.48,0003.65,0003.22
2022-04-25 08:48:00,,0832.8,4.98,0.00,22.5,21.7,00.0,31.4,24.3,10.0,0000.0,0006.32,0003.68,0003.22
2022-04-25 08:49:00,,0832.8,5.00,0.00,22.5,21.8,00.0,31.4,24.3,10.0,0000.0,0005.99,0003.69,0003.23
2022-04-25 08:50:00,,0832.8,5.01,0.00,22.5,21.8,00.0,31.4,24.3,10.1,0000.0,0006.02,0003.70,0003.23
2022-04-25 08:51:00,,0832.7,5.01,0.00,22.5,21.8,00.0,31.4,24.3,10.0,0000.0,0005.99,0003.70,0003.22
2022-04-25 08:52:00,,0832.8,4.98,0.00,22.5,21.8,00.0,31.4,24.3,09.9,0000.0,0006.21,0003.70,0003.22
2022-04-25 08:53:00,,0832.8,5.01,0.00,22.5,21.8,00.0,31.4,24.4,09.7,0000.0,0006.29,0003.71,0003.21
2022-04-25 08:54:00,,0832.7,5.00,0.00,22.5,21.8,00.0,31.4,24.4,09.6,0000.0,0006.38,0003.69,0003.18
2022-04-25 08:55:00,,0832.8,5.00,0.00,22.5,21.8,00.0,31.4,24.4,09.6,0000.0,0006.46,0003.67,0003.15
2022-04-25 08:56:00,,0832.8,4.98,0.00,22.5,21.8,00.0,31.4,24.4,09.7,0000.0,0006.24,0003.59,0003.10
2022-04-25 08:57:00,,0832.7,5.00,0.00,22.5,21.8,00.0,31.4,24.3,09.9,0000.0,0006.14,0003.57,0003.06
2022-04-25 08:58:00,,0832.7,5.00,0.00,22.5,21.8,00.0,31.4,24.4,09.9,0000.0,0006.15,0003.56,0003.02
2022-04-25 08:59:00,,0832.7,5.00,0.00,22.5,21.8,00.0,31.4,24.3,09.9,0000.0,0006.03,0003.52,0002.99
